GFSNW_500_rhum_057.txt.gz
RH
53 47 45 31 29 23 18 10 6 5 7 8 5 6 25 34 38 36 47 82 100 100 99 75 47 72 73 83 98 97 84 82 80 86 89 83 73 49 43 39 33 30 26 20
58 54 54 41 30 23 17 12 6 4 6 7 5 6 15 42 32 38 35 48 90 100 100 90 45 60 79 68 90 90 78 69 60 50 50 45 37 43 39 35 32 23 26 19
61 61 57 54 40 27 19 15 8 5 6 5 5 8 11 53 36 36 44 36 46 78 87 100 82 58 55 52 50 68 63 60 50 46 48 40 36 45 50 53 43 46 33 64
62 68 62 60 52 39 29 22 13 4 5 4 4 9 19 39 50 35 48 45 40 43 54 69 99 97 64 48 53 54 55 62 66 65 61 56 50 51 63 51 63 48 74 63
65 64 66 65 53 44 33 30 18 5 4 4 4 8 15 21 52 37 33 37 41 42 36 40 38 57 87 100 100 93 79 64 60 70 74 84 79 85 91 91 97 74 80 65
71 63 68 68 56 46 32 24 16 6 4 4 4 11 17 18 24 49 36 41 38 37 40 37 40 46 56 56 62 78 93 98 98 98 95 92 92 99 90 92 98 86 68 96
75 75 77 70 61 50 37 22 12 6 4 4 4 10 25 26 17 57 47 43 46 47 50 43 40 48 61 60 58 60 64 62 62 70 70 67 72 75 77 78 82 71 66 69
94 84 82 72 60 58 40 24 12 7 4 3 3 7 33 40 33 24 64 47 50 54 45 50 42 48 55 57 55 54 52 48 56 60 74 77 76 77 75 74 71 63 59 58
85 88 89 71 60 54 40 38 12 8 4 3 3 6 31 48 53 41 48 66 50 51 50 61 48 46 62 65 76 72 67 63 56 56 69 76 74 69 54 56 57 59 62 66
83 97 92 74 63 47 53 18 12 8 4 3 3 4 15 43 54 63 58 48 62 46 58 73 60 58 59 67 71 67 73 90 91 88 91 92 70 60 42 40 39 38 40 52
92 98 93 81 62 44 50 22 12 8 6 4 3 3 8 29 34 46 82 59 65 74 56 68 78 62 53 52 51 45 41 50 78 88 88 85 76 61 47 44 39 39 41 45
90 93 97 81 60 47 48 16 12 10 7 4 4 4 6 16 34 34 66 86 55 72 80 76 78 84 75 67 58 46 38 39 51 59 70 74 75 75 69 65 67 56 48 43
91 96 94 80 64 45 36 16 12 10 7 5 4 4 6 14 39 53 65 54 69 50 89 87 88 81 75 67 54 46 36 32 31 33 36 34 32 34 39 52 64 69 69 67
98 95 92 75 85 57 24 21 14 10 8 6 4 4 5 10 25 46 56 72 76 54 64 97 90 85 75 66 60 56 41 32 30 31 31 32 37 51 42 41 34 28 37 54
97 90 87 85 61 42 28 18 13 10 8 6 4 4 4 4 11 29 48 71 89 95 78 82 100 100 99 100 96 64 49 43 34 37 80 86 100 98 86 88 89 83 68 44
93 88 87 75 73 44 23 16 12 10 7 6 5 3 3 4 11 32 39 54 70 88 100 100 97 96 98 100 99 100 80 53 88 99 70 37 32 30 29 25 23 20 28 49
95 90 84 74 63 37 25 17 14 10 8 6 5 4 4 4 3 8 47 67 79 82 95 98 100 95 89 96 100 100 100 100 99 85 45 37 30 30 31 23 19 17 16 13
96 93 81 73 56 37 23 18 14 11 9 8 6 5 5 5 4 4 12 49 76 82 84 84 86 89 94 94 96 93 90 84 78 57 40 35 38 34 28 24 19 18 16 13
98 94 78 82 54 34 23 19 14 13 11 9 8 7 7 7 6 5 5 13 53 70 75 82 90 92 89 93 99 97 87 76 70 77 70 59 47 41 31 27 32 29 17 14
98 98 90 75 53 28 22 16 15 15 12 10 10 9 9 10 10 8 6 6 13 45 53 70 71 63 61 62 75 95 100 100 92 84 84 71 59 53 45 41 36 55 26 27
98 94 97 81 48 21 18 16 16 15 15 13 14 14 14 15 15 13 11 10 8 10 22 48 59 67 59 60 54 63 71 81 88 93 88 70 68 73 56 37 21 78 63 66
99 97 96 67 41 18 16 15 14 18 21 23 21 22 21 21 22 23 18 16 14 13 14 12 13 20 32 33 29 32 40 58 86 99 100 94 88 81 80 54 39 88 100 100
100 99 94 61 45 24 15 16 15 21 26 28 30 33 32 29 31 31 31 28 26 22 20 17 17 14 15 19 23 24 22 19 22 48 79 96 99 92 90 93 82 76 78 100
100 99 88 73 51 29 21 20 19 22 25 27 33 40 45 42 40 39 42 36 35 32 32 31 32 27 24 24 26 24 28 29 19 16 22 75 92 100 94 100 100 96 98 100
100 100 92 90 73 32 21 26 26 26 27 32 41 54 59 60 58 56 54 55 49 46 45 42 41 44 41 39 34 34 37 36 38 34 21 21 66 96 100 98 97 92 98 100
100 100 98 100 92 51 28 27 33 39 43 45 51 59 62 55 62 58 63 65 64 58 56 51 50 44 43 43 42 47 49 50 46 40 29 25 21 73 100 100 100 98 83 94
100 100 100 100 93 77 56 43 40 42 52 60 63 62 63 64 68 68 66 66 62 54 51 48 47 40 39 40 45 45 42 40 38 34 29 37 38 33 100 100 100 100 100 97

GFSNW_500_rhum_063.txt.gz
RH
97 95 78 68 59 54 39 30 23 12 5 7 3 3 4 8 22 35 72 77 77 100 96 32 32 71 75 83 80 84 95 93 89 86 93 96 84 82 79 82 76 67 57 47
97 97 87 75 64 56 38 30 23 12 6 7 3 3 4 7 20 30 43 83 86 90 100 35 29 44 93 74 74 82 82 89 92 86 89 77 79 83 86 83 70 61 56 66
96 97 84 74 65 53 36 30 26 14 7 6 4 3 4 8 8 24 36 54 79 80 88 62 42 55 68 85 98 87 100 86 95 97 91 92 81 93 93 82 66 80 57 60
95 97 89 76 62 52 39 38 30 16 8 6 4 3 3 6 8 19 26 34 47 75 69 59 58 56 58 66 87 85 92 91 95 85 78 84 84 81 78 70 76 52 56 43
96 96 91 78 64 56 44 36 34 17 8 6 4 3 3 5 8 10 26 28 34 35 59 55 50 69 61 54 60 82 78 78 78 74 63 56 52 51 53 54 49 43 38 33
97 96 86 75 70 60 45 42 36 15 10 6 4 3 3 4 9 9 18 26 27 33 33 53 70 61 75 74 66 83 83 78 72 62 62 57 50 49 43 38 37 31 28 32
97 96 85 76 69 55 45 43 37 18 11 6 4 4 3 4 7 11 10 26 24 24 32 31 39 59 74 79 82 68 62 57 54 49 51 49 48 50 42 39 33 32 44 56
97 96 74 69 63 54 45 42 36 20 13 7 4 4 3 3 5 11 14 12 27 28 24 28 33 34 32 38 53 60 65 72 82 83 84 70 73 72 71 74 68 69 63 60
95 97 90 77 64 50 42 50 35 22 16 10 6 5 3 3 4 6 12 21 20 34 32 33 28 29 37 38 37 45 54 54 51 51 51 49 36 43 46 47 40 40 48 53
97 97 96 86 71 54 50 48 41 24 19 11 8 5 4 3 3 5 10 24 30 23 39 35 33 36 38 36 38 41 39 40 40 46 46 44 38 41 45 52 44 49 58 56
96 97 95 85 75 65 61 48 45 28 21 14 9 6 5 4 3 3 5 14 25 38 36 40 44 43 47 57 58 64 67 79 78 72 66 61 71 76 81 76 75 72 62 48
97 97 96 91 70 66 63 57 45 30 25 18 10 7 5 5 4 4 4 8 19 24 31 40 49 60 56 66 72 69 72 79 78 67 53 50 48 49 60 74 81 82 77 64
97 97 96 87 74 66 63 64 50 27 30 16 10 9 6 5 5 4 3 5 9 22 32 30 42 63 81 71 62 73 68 71 67 64 53 47 43 37 32 39 47 53 66 77
97 97 96 84 80 68 66 63 44 28 25 14 11 10 7 6 5 4 4 3 4 9 29 46 46 37 50 85 92 78 75 78 79 74 66 62 57 48 37 34 32 31 32 31
97 96 96 94 92 76 66 63 48 29 19 17 12 12 9 7 6 6 4 4 3 5 12 27 52 64 65 58 82 94 100 100 100 100 96 89 85 72 60 49 40 33 44 76
96 96 96 96 96 92 66 62 55 39 16 13 12 11 9 8 7 7 5 5 4 4 5 11 30 52 64 77 87 87 90 96 97 98 99 100 100 100 98 92 83 81 80 76
97 97 96 96 95 89 63 60 51 31 22 15 13 12 11 10 9 8 6 6 5 6 5 6 8 24 45 60 62 75 76 79 84 85 86 89 88 97 96 99 98 90 71 52
96 96 96 96 96 83 65 58 47 33 20 16 14 13 13 11 10 9 9 7 6 7 6 6 7 10 18 42 46 59 58 60 65 74 74 80 80 78 82 85 87 88 84 75
97 92 96 96 95 89 70 59 42 27 18 18 18 15 14 14 14 12 12 10 9 6 8 7 8 7 6 6 8 17 26 40 44 38 32 39 45 44 39 42 49 59 70 73
96 97 96 95 94 95 87 49 47 28 19 20 21 19 21 21 20 22 22 17 13 11 9 11 13 12 8 8 6 6 7 7 7 8 10 10 12 14 12 11 13 20 28 43
96 96 97 96 97 97 77 62 52 26 22 23 24 24 25 25 27 30 32 34 32 31 29 29 29 34 31 24 19 12 10 10 11 12 10 11 11 9 9 10 9 8 9 14
98 98 97 99 96 99 94 89 44 32 25 23 25 26 29 27 28 30 32 37 42 47 50 55 64 60 58 50 40 32 28 24 22 20 20 20 21 20 20 19 19 21 18 19
97 91 92 92 81 95 93 75 62 35 22 22 25 27 28 29 32 39 41 47 50 58 62 70 68 69 71 75 69 64 52 41 37 35 33 31 32 35 36 33 37 38 39 33
96 97 95 96 83 96 98 98 74 30 20 22 26 28 29 30 37 39 42 42 53 64 70 62 51 50 56 64 72 76 74 64 55 51 42 35 31 30 35 37 41 51 60 58
97 96 93 93 99 99 100 92 75 55 35 36 33 32 31 32 34 38 54 69 73 63 55 47 46 49 56 62 66 69 63 53 42 35 28 24 22 21 19 17 17 18 23 39
98 96 97 98 98 100 100 100 99 90 79 73 69 62 56 60 72 78 80 66 54 50 48 47 47 49 54 56 53 47 39 33 26 21 16 14 10 8 8 9 11 15 19 32
99 100 99 97 97 96 99 100 100 95 92 73 77 91 93 84 74 66 55 47 45 44 44 43 45 47 51 48 42 32 23 19 14 11 9 8 8 9 10 17 22 42 83 100

GFSNW_500_rhum_069.txt.gz
RH
35 8 50 85 98 98 98 91 74 44 12 6 4 3 3 3 9 19 38 51 46 31 50 93 70 85 78 89 98 100 100 100 93 89 91 80 95 98 91 96 90 87 87 82
78 9 50 95 98 97 97 92 75 33 11 6 4 3 2 3 5 12 26 46 45 21 46 70 89 89 99 98 95 100 84 76 75 69 75 86 81 91 100 99 99 98 95 90
19 48 61 98 98 97 98 94 66 29 11 6 4 3 3 3 4 7 16 34 42 26 22 36 52 54 78 88 91 93 89 89 89 87 82 87 83 89 88 78 89 98 100 99
23 66 95 98 97 98 97 95 60 31 10 6 4 3 3 3 3 4 9 23 49 40 17 20 28 38 37 86 73 70 72 89 85 84 85 87 91 94 86 79 97 84 100 99
90 100 100 98 98 99 97 94 55 34 10 6 4 3 3 3 3 4 6 12 30 40 43 18 27 32 52 70 68 58 61 66 76 75 78 88 85 78 86 89 84 83 98 94
100 98 98 98 99 98 95 88 57 32 10 6 5 4 3 3 3 4 4 6 18 33 38 22 22 27 37 53 57 40 42 46 68 76 76 70 65 64 64 68 77 77 77 80
99 98 98 98 98 98 96 91 58 29 10 6 5 4 3 3 3 3 4 5 9 15 29 38 36 32 34 32 30 34 40 38 43 80 87 77 81 68 57 52 50 56 56 60
79 95 98 98 98 98 96 94 60 27 11 8 6 4 4 3 3 3 4 4 6 8 15 20 25 29 40 49 47 45 55 64 61 55 58 56 58 62 60 60 70 69 76 78
99 95 98 98 97 97 96 89 58 29 13 10 7 5 4 4 4 3 4 4 4 5 6 8 15 18 22 26 28 40 52 51 60 64 59 47 42 58 64 64 58 60 60 63
99 98 98 98 98 97 96 91 50 33 15 14 8 7 6 5 4 4 4 4 4 5 6 8 8 15 19 19 19 24 29 31 32 33 35 36 40 40 43 39 40 40 44 43
96 98 98 99 99 96 96 91 46 40 20 15 11 10 6 6 6 4 4 4 4 4 5 6 8 10 12 16 23 28 32 34 34 39 40 48 56 53 52 45 46 47 46 47
97 97 97 98 99 97 96 79 84 48 28 18 15 11 8 7 7 6 5 5 5 4 4 5 5 6 10 11 14 18 36 40 42 40 45 65 86 84 92 90 86 79 72 62
98 98 97 97 98 96 89 82 49 48 37 25 22 11 12 9 8 7 7 6 5 6 5 5 5 6 6 8 11 14 19 29 40 42 44 53 63 74 79 75 70 63 56 51
98 98 97 98 98 98 90 91 91 65 39 30 25 13 13 12 11 9 8 7 7 6 6 6 5 6 7 6 6 9 14 20 31 37 50 62 71 77 82 78 82 84 85 85
98 97 97 97 97 97 90 77 82 61 39 34 23 16 16 12 12 12 10 9 8 8 8 8 7 8 8 8 6 5 7 9 18 37 48 54 61 69 75 84 94 95 100 100
98 97 97 97 98 96 83 73 78 57 36 31 27 23 17 14 14 14 12 12 11 11 11 9 10 11 10 10 7 7 6 7 8 11 15 39 53 59 67 73 73 76 78 79
97 98 98 97 97 96 84 82 73 62 44 35 31 23 19 16 16 16 15 14 14 14 13 11 13 14 15 15 10 13 11 8 7 8 8 9 10 11 12 14 17 18 17 18
98 100 98 97 97 92 86 81 58 50 37 33 29 24 26 23 20 18 18 17 18 19 20 20 23 24 28 31 33 34 27 23 20 17 16 12 10 9 9 8 9 11 12 13
96 99 97 97 96 88 81 83 73 48 29 35 39 28 23 26 24 21 22 23 24 27 28 30 34 36 39 44 47 53 54 55 56 55 57 58 56 51 43 36 30 24 21 18
95 96 98 98 97 97 96 94 63 48 43 39 35 32 28 33 26 26 28 29 30 34 35 36 39 42 48 45 44 47 48 48 49 52 59 62 67 65 63 66 68 68 65 61
93 97 100 100 98 97 97 86 55 54 49 50 43 32 26 29 28 29 33 35 37 38 38 40 45 50 45 41 40 39 38 40 43 45 50 55 61 63 67 70 72 68 67 68
97 99 99 97 97 95 93 89 85 74 54 48 40 30 30 30 30 32 34 37 41 42 46 46 48 45 42 39 34 30 29 33 36 38 47 50 52 50 46 42 36 35 37 40
97 98 96 95 90 85 87 86 90 82 67 52 44 39 40 38 36 38 36 38 47 54 50 52 48 43 39 32 27 25 25 26 29 34 35 33 27 20 14 10 9 9 9 9
97 100 91 81 84 90 98 98 96 78 67 57 46 47 48 45 45 44 52 61 64 58 56 49 44 40 33 28 25 23 23 24 28 31 26 17 10 7 8 11 12 12 13 13
92 98 94 81 96 95 95 98 96 94 93 72 59 59 67 60 69 76 79 75 67 63 56 48 39 34 30 27 22 20 21 23 27 21 14 9 7 12 18 12 10 17 18 17
100 89 88 96 94 85 94 98 96 89 86 83 79 85 85 84 91 100 96 78 70 64 54 44 37 33 29 23 19 19 21 24 23 15 10 7 14 28 28 16 13 27 25 32
97 94 97 98 90 92 98 91 87 83 83 85 90 95 100 100 99 87 80 76 69 60 51 40 37 32 23 19 18 18 20 23 17 12 7 9 31 50 51 30 18 38 32 46

GFSNW_500_rhum_072.txt.gz
RH
24 8 13 100 73 70 36 97 95 94 71 17 5 3 3 4 8 25 40 44 26 28 30 23 51 58 70 77 73 81 79 75 88 84 86 94 89 86 89 86 79 75 78 77
12 8 94 100 51 39 99 96 97 88 46 9 4 3 3 3 6 19 34 37 33 26 26 30 50 71 73 77 85 76 81 87 78 67 67 65 80 94 93 92 95 96 94 87
8 84 99 96 38 54 98 98 98 82 30 7 4 3 3 3 4 12 25 32 31 30 32 35 42 72 77 76 83 83 71 59 62 62 58 62 60 72 80 87 100 100 100 100
99 100 100 94 71 97 99 96 96 70 23 6 4 3 3 3 4 6 20 26 18 44 37 36 55 63 70 70 74 70 64 71 66 62 61 66 72 72 67 73 89 93 100 100
100 100 98 100 96 98 99 98 97 50 13 6 4 3 3 4 3 4 10 28 24 12 27 35 39 42 47 77 67 62 57 61 63 71 70 68 69 63 65 75 75 81 89 74
100 92 99 98 99 99 99 98 81 45 12 5 4 3 3 4 4 4 4 9 36 26 12 26 26 29 32 39 56 64 54 50 53 66 69 66 78 76 64 69 85 86 90 100
84 100 99 96 100 98 98 97 72 38 10 5 4 3 3 4 4 4 4 5 11 22 30 15 17 19 25 24 26 46 50 33 34 43 44 46 66 70 69 61 62 65 80 87
100 98 98 100 98 97 98 95 67 31 10 6 5 4 3 4 4 4 4 5 6 8 20 31 22 18 17 22 30 28 28 24 30 38 50 61 70 69 71 70 61 53 58 59
100 99 98 97 98 98 98 91 63 26 10 6 5 4 4 4 4 4 4 4 5 6 8 12 20 28 30 31 33 32 30 33 41 49 53 51 52 56 59 65 58 76 74 68
98 98 98 100 94 97 98 89 55 24 10 8 6 5 5 4 4 4 5 4 5 5 6 6 7 10 10 15 15 16 17 20 24 26 31 34 36 39 40 45 53 49 48 50
99 98 98 96 98 100 98 88 50 24 12 10 7 6 6 6 5 5 5 5 5 5 5 5 6 7 8 9 10 11 15 18 21 22 22 25 26 27 31 37 37 37 42 52
99 99 93 89 98 99 97 79 44 25 14 13 9 8 7 6 6 6 5 5 5 6 5 5 5 6 6 6 7 8 10 11 12 16 19 27 32 35 38 40 43 48 60 67
99 98 89 91 98 98 96 82 40 31 19 15 15 9 10 8 8 8 6 6 6 6 6 6 6 7 6 6 6 6 7 8 10 12 24 27 34 37 43 49 54 62 70 74
99 98 97 97 96 100 97 89 40 41 24 17 20 12 12 11 11 10 9 9 8 7 7 8 7 8 8 8 8 8 7 9 10 10 12 11 20 26 34 51 57 64 68 72
98 98 99 97 97 96 96 95 87 40 34 26 25 15 13 15 14 13 13 13 11 10 11 10 10 10 10 11 11 11 11 10 12 13 13 13 10 9 8 9 20 44 63 76
96 95 97 97 94 99 94 96 60 42 36 30 28 19 17 17 16 16 17 17 16 13 15 14 13 14 15 16 18 16 16 20 16 14 11 9 8 8 9 9 9 9 10 12
99 99 98 96 97 98 92 95 97 95 56 30 28 25 22 21 20 19 20 21 18 19 20 19 21 22 24 25 28 30 32 34 35 33 32 34 38 41 43 44 43 42 38 30
96 98 96 97 100 96 92 93 85 60 46 50 27 30 31 28 21 21 23 24 25 26 26 26 27 31 32 33 35 36 34 34 35 36 40 46 51 49 49 47 48 55 57 60
99 98 95 92 100 98 92 86 93 93 78 46 31 32 31 31 26 25 26 28 31 32 32 33 35 38 39 38 39 36 36 34 31 30 37 44 46 45 46 49 52 56 58 62
95 98 95 92 96 93 82 82 68 64 49 36 37 37 30 35 30 29 32 32 36 38 40 40 42 44 44 44 41 40 35 27 24 25 30 35 37 34 38 37 40 40 38 32
96 97 95 98 99 100 98 96 83 61 49 38 38 42 39 36 34 32 35 37 40 43 45 46 48 50 48 43 40 38 31 26 25 25 28 30 30 30 27 21 14 10 8 10
100 99 97 98 98 96 87 75 77 82 45 49 45 47 45 38 38 37 39 39 47 50 54 53 53 52 47 43 39 33 30 28 24 24 26 28 27 23 17 11 7 6 7 13
97 97 96 98 96 93 96 96 88 54 51 53 53 42 42 42 43 44 43 52 60 62 60 57 59 56 50 45 38 34 32 26 22 22 23 23 22 17 11 7 6 10 32 38
97 100 100 92 87 93 100 98 94 93 88 60 55 56 55 52 52 52 59 62 69 65 62 59 60 56 54 48 39 37 26 20 20 19 22 22 19 12 7 7 10 40 52 43
100 100 98 89 98 98 96 94 93 86 81 66 58 64 67 63 67 68 74 73 74 64 62 61 60 61 56 42 38 25 19 17 16 18 21 19 12 8 6 10 38 57 51 46
97 98 91 100 98 95 92 84 88 93 94 90 86 76 70 75 81 81 80 78 71 61 57 58 60 50 43 34 23 18 16 16 18 20 18 13 10 7 7 25 58 64 58 47
95 98 100 100 97 96 94 97 98 96 95 89 80 81 82 75 71 76 76 71 65 60 57 53 44 41 31 24 19 16 15 18 19 18 15 12 9 6 13 36 70 72 54 46

GFSNW_500_rhum_078.txt.gz
RH
82 97 100 100 68 60 30 100 89 100 99 100 97 100 74 20 22 38 22 26 33 69 69 60 72 72 75 71 84 75 75 73 62 57 59 64 58 54 50 52 53 53 56 76
90 100 100 40 35 64 97 100 100 95 86 98 100 89 22 15 27 28 22 25 46 61 54 48 59 60 62 67 73 72 62 54 55 60 56 47 37 38 39 38 39 40 52 48
95 100 90 16 65 100 100 100 90 84 99 100 100 44 14 10 24 23 20 26 41 48 39 40 39 47 54 59 53 54 53 49 41 39 41 44 48 50 45 43 44 38 30 39
88 64 31 60 99 94 75 81 98 100 100 100 60 13 10 10 22 22 20 27 33 37 31 24 29 42 54 54 41 47 50 50 45 41 37 34 38 31 27 32 46 50 45 33
26 20 47 96 89 88 96 100 100 100 100 74 17 10 8 11 21 22 19 22 24 29 26 25 25 35 42 32 28 38 50 42 38 40 37 36 32 30 30 33 35 33 29 31
24 69 90 71 77 97 100 100 100 100 85 25 9 7 7 12 18 16 16 18 23 30 22 21 31 34 25 25 30 36 40 37 36 33 28 26 24 24 22 23 27 33 35 46
70 96 82 79 97 100 100 100 98 87 31 9 7 6 6 10 12 12 16 22 24 22 22 20 19 22 21 25 36 32 27 32 39 40 36 30 34 31 33 35 34 36 35 31
80 99 100 100 100 97 99 100 97 53 16 8 5 5 5 6 7 9 10 14 17 19 24 20 20 19 20 23 26 24 22 18 19 20 25 24 22 28 31 42 50 51 52 55
95 96 95 96 93 97 100 100 77 38 11 6 5 4 4 4 4 5 7 9 11 10 14 17 19 21 20 22 24 23 22 19 18 18 20 24 28 33 37 39 41 44 46 45
98 92 96 97 100 100 99 100 59 19 8 5 5 5 5 4 4 4 4 4 5 7 8 10 12 12 12 13 17 18 18 20 21 19 16 14 14 15 17 18 19 21 25 29
96 92 96 94 97 100 96 84 48 15 6 5 4 4 5 5 5 5 5 5 5 4 4 5 5 6 6 7 6 5 6 6 6 7 8 10 11 10 10 11 12 14 18 23
93 96 98 94 97 99 94 70 32 10 6 5 4 4 5 5 6 6 6 6 6 6 6 6 5 5 5 5 5 5 6 6 6 6 7 7 7 8 8 9 9 10 12 13
96 94 96 95 97 100 95 72 26 10 6 5 6 5 5 5 6 6 7 7 7 8 7 7 7 7 8 7 8 8 8 8 8 10 11 12 12 13 13 14 13 13 13 14
91 93 96 97 98 95 94 70 22 11 7 6 6 6 6 7 7 9 9 9 10 9 10 11 11 12 12 12 13 12 14 15 15 15 18 18 18 18 18 18 18 18 18 20
69 85 93 97 98 97 86 74 36 12 10 8 6 7 7 8 10 11 12 13 13 13 14 16 17 18 18 20 20 19 21 23 23 24 24 23 22 20 19 18 19 19 19 19
61 84 88 84 95 97 86 80 37 14 12 11 10 10 8 9 12 14 15 17 17 17 18 22 23 22 25 26 28 28 30 30 30 30 29 29 28 25 24 25 25 22 21 20
66 78 81 83 90 91 95 84 33 18 15 15 13 14 11 12 15 17 18 19 17 20 24 28 29 31 31 32 33 34 35 36 35 33 33 31 30 30 31 30 23 20 18 16
66 65 72 82 88 94 93 97 65 29 25 23 18 15 17 15 16 18 20 20 21 24 29 32 34 34 35 36 38 39 40 39 38 39 38 36 34 34 30 21 18 18 18 16
66 65 64 78 82 94 94 97 83 48 36 32 26 18 18 21 22 22 23 24 26 30 32 35 37 37 39 42 41 42 45 43 44 46 42 37 34 26 21 18 17 17 14 15
65 68 67 74 76 84 96 91 87 92 90 42 26 20 15 21 25 26 26 28 31 32 35 37 40 43 44 46 44 48 48 49 52 44 38 33 26 22 18 18 15 11 10 9
57 74 82 83 77 81 88 91 85 88 91 72 46 68 28 23 59 37 29 32 34 37 38 40 47 52 53 53 52 53 54 55 47 38 33 28 21 16 16 14 11 10 9 9
59 81 88 86 80 81 87 84 78 84 90 96 88 52 56 74 43 32 33 38 40 42 43 48 55 58 62 57 53 54 54 44 39 34 27 20 15 14 13 11 11 10 7 7
62 70 81 86 83 70 72 74 74 89 87 59 51 56 81 48 33 34 41 45 47 48 49 57 60 61 57 56 54 53 43 38 32 25 18 15 14 12 10 10 9 7 7 10
71 60 68 82 72 62 68 92 96 92 94 93 94 84 40 27 30 40 45 52 55 52 56 62 62 60 56 53 50 44 38 32 25 17 15 14 12 9 9 8 7 7 10 17
94 70 68 72 76 82 91 99 97 89 88 88 91 55 29 26 38 49 57 59 58 57 58 60 58 52 49 46 43 38 31 25 18 15 14 12 8 7 8 7 7 10 18 24
100 82 64 73 88 92 100 100 97 85 80 93 80 43 37 47 50 55 60 63 62 58 62 56 51 47 45 42 36 30 26 18 15 14 11 9 8 7 7 7 9 18 27 33
90 75 68 79 100 98 99 99 100 96 96 90 74 84 84 57 61 63 64 68 65 66 60 52 48 45 44 37 31 28 20 16 13 11 10 8 8 7 7 7 14 23 32 37

GFSNW_500_rhum_084.txt.gz
RH
79 99 100 67 40 39 21 23 24 25 25 29 90 100 100 67 36 28 30 33 44 44 64 65 69 82 78 80 91 95 85 74 72 67 74 70 70 43 55 48 44 56 57 53
69 56 35 26 22 22 25 24 39 49 77 100 100 89 36 46 26 31 29 36 44 52 51 55 63 70 75 80 85 85 77 81 84 60 64 54 38 34 25 29 34 31 38 48
19 19 21 26 33 55 64 70 88 99 100 100 95 28 37 32 31 31 34 54 54 47 43 45 46 49 62 67 70 68 66 69 74 70 50 39 29 24 20 17 22 21 26 33
62 69 78 96 97 96 100 100 98 97 100 47 25 31 35 30 36 32 35 40 40 37 38 40 45 52 51 51 52 56 54 56 56 50 41 41 28 27 36 28 20 16 18 19
77 88 93 97 100 98 100 100 100 96 94 23 26 30 24 33 37 38 30 29 27 31 36 40 35 41 47 44 43 45 45 47 46 40 29 22 21 20 22 26 27 32 40 24
87 94 97 96 100 100 99 95 31 16 17 16 18 16 20 23 27 28 26 21 19 24 24 27 30 28 32 35 33 33 34 32 33 31 25 23 20 22 21 16 14 20 24 24
73 85 87 92 93 96 82 52 17 11 10 10 9 10 12 14 18 18 24 18 17 17 18 21 26 24 19 19 20 19 20 20 18 20 24 24 23 21 19 17 15 13 13 15
56 68 76 74 71 65 38 23 11 8 6 6 6 6 8 9 12 20 21 18 15 16 17 22 21 21 19 18 18 18 15 15 13 15 15 14 14 14 15 14 14 16 15 15
47 58 64 64 49 29 12 7 7 6 5 5 5 5 6 6 5 7 9 13 11 12 13 14 12 13 12 12 13 11 10 9 8 8 8 8 7 6 6 5 6 7 7 7
31 42 49 46 42 20 8 6 5 5 4 4 5 5 5 5 5 5 6 6 7 9 10 10 9 9 9 9 8 6 6 6 5 6 6 6 7 8 8 9 8 8 8 7
31 31 33 38 34 18 10 5 5 4 4 4 5 5 5 5 5 6 6 7 6 6 7 7 6 6 7 6 6 6 7 8 8 8 10 9 11 12 12 13 13 13 13 13
29 33 34 32 28 16 8 6 5 5 5 5 5 6 6 7 7 7 8 7 7 7 7 7 7 7 8 8 8 9 9 12 12 13 14 14 14 15 17 18 18 19 19 19
26 27 32 32 30 21 8 6 5 5 5 5 6 7 8 8 9 9 9 10 10 10 9 11 12 13 14 14 16 16 19 19 20 20 20 22 22 23 24 24 25 25 25 25
29 25 28 35 31 31 23 7 5 4 4 4 5 6 6 8 10 10 10 11 12 12 15 17 20 22 23 24 24 24 24 25 26 25 26 26 27 28 28 28 27 26 26 26
36 31 26 28 38 36 31 21 6 5 5 5 5 6 6 7 9 10 12 12 13 14 16 20 22 27 28 26 26 26 27 27 28 28 28 29 31 31 32 32 29 27 26 25
33 38 33 27 33 40 44 36 23 10 7 6 6 6 6 7 8 12 13 15 17 17 18 20 25 28 29 27 28 28 27 29 29 32 34 35 36 36 36 33 30 28 24 19
4 28 39 36 30 40 44 47 41 34 20 10 7 6 6 7 9 12 14 16 18 20 20 22 25 30 30 29 30 31 32 35 36 38 39 39 40 38 34 32 28 24 18 14
2 3 32 41 40 35 44 48 54 52 44 41 19 10 10 9 12 14 16 17 18 20 22 26 26 30 31 32 35 38 41 45 44 43 42 40 38 33 30 28 24 18 14 11
2 2 14 36 49 44 48 54 52 56 57 58 54 28 12 12 12 15 18 20 20 24 26 27 31 31 33 35 38 47 47 45 43 42 42 38 33 28 27 24 18 14 12 11
3 2 6 36 54 59 56 58 55 58 60 71 76 46 22 17 15 14 16 20 22 26 29 31 32 34 37 39 43 48 43 40 41 41 39 35 31 27 25 20 15 12 11 10
6 3 3 22 49 63 64 60 53 60 71 84 93 77 50 30 23 22 19 18 22 26 33 38 34 38 43 45 48 50 44 43 41 40 37 32 29 27 22 16 13 12 11 11
8 4 4 8 45 56 67 60 59 65 74 90 94 93 92 71 50 29 19 24 29 28 44 43 37 42 44 48 53 55 49 46 42 40 35 31 28 24 17 14 12 12 12 11
11 5 4 7 20 54 59 65 81 88 84 80 92 94 98 94 92 80 56 38 26 37 56 39 38 45 49 55 58 57 52 44 43 38 32 30 26 20 16 13 13 13 13 11
11 7 5 6 14 38 60 78 100 96 95 92 96 98 100 100 100 93 62 58 56 59 69 40 40 49 56 61 62 61 52 46 43 36 32 29 24 18 15 14 14 14 12 9
11 8 6 7 18 20 59 80 91 100 100 100 100 97 100 100 94 96 96 96 81 58 52 33 36 48 64 68 67 62 50 46 40 36 32 28 23 18 15 15 15 13 11 7
11 10 7 9 20 25 38 99 96 99 100 100 100 99 97 100 94 90 98 82 69 87 54 25 34 54 71 75 70 65 50 44 40 35 31 27 23 18 16 16 14 12 9 6
12 10 9 11 26 37 27 96 100 100 100 100 100 98 99 97 96 96 97 100 99 93 50 39 39 77 83 80 77 60 49 45 39 34 31 26 23 19 17 16 14 11 7 6

GFSNW_500_rhum_087.txt.gz
RH
68 60 33 25 26 27 28 30 31 34 36 51 93 100 96 32 33 41 56 55 72 68 77 85 98 85 69 55 63 82 83 74 95 89 80 75 74 62 74 62 69 79 82 78
91 69 69 72 70 58 62 43 33 44 57 89 94 100 47 36 34 42 47 44 63 75 71 74 82 72 70 69 66 66 60 51 56 72 65 42 46 43 42 51 51 51 59 58
94 100 98 97 99 98 95 100 96 90 94 97 98 49 30 32 37 36 38 49 58 64 63 71 67 68 63 62 63 63 59 60 61 53 48 36 39 34 38 36 29 34 42 45
84 100 100 100 82 55 30 52 74 29 30 32 38 31 30 31 31 34 45 45 48 45 50 54 60 57 53 56 53 51 53 53 55 45 44 44 36 30 27 27 20 19 22 28
39 60 70 61 45 29 18 19 20 19 24 29 28 26 24 26 28 40 34 30 32 34 43 47 46 44 44 42 40 36 35 34 35 35 30 24 19 18 23 23 18 16 15 14
20 21 31 29 10 6 8 9 10 12 13 17 22 21 20 20 27 27 24 22 22 24 27 27 30 32 30 28 27 27 26 24 21 17 16 17 16 16 14 13 13 15 16 15
15 9 13 12 6 4 4 4 4 5 7 8 10 14 17 17 19 19 16 15 15 16 18 19 20 26 26 23 21 18 16 16 16 13 13 14 13 14 13 11 10 10 10 11
12 9 6 6 4 3 3 3 3 4 4 5 6 8 11 12 12 12 14 16 15 12 13 17 17 17 17 16 16 14 12 10 11 9 10 8 8 8 8 6 6 6 6 6
16 10 8 5 4 4 3 3 3 3 3 3 4 4 6 7 8 9 8 9 9 10 12 14 14 14 12 12 13 12 10 8 8 7 6 6 6 7 8 8 7 7 7 8
17 20 13 5 4 4 4 4 4 4 4 4 4 4 4 4 5 5 6 6 7 8 9 9 9 10 9 10 9 7 7 7 7 8 8 10 10 11 13 12 12 14 14 14
27 21 20 16 5 4 4 4 5 6 6 7 6 6 6 6 6 6 6 8 7 7 7 7 7 7 8 7 7 8 9 9 10 12 14 12 14 16 16 17 18 18 19 19
25 26 21 20 15 7 5 5 5 6 6 7 9 9 10 9 8 9 9 9 9 9 9 9 9 8 9 9 10 12 13 17 17 17 19 18 20 21 21 21 21 21 20 20
3 27 29 24 23 20 9 7 5 6 7 7 9 10 10 10 12 12 13 14 15 15 18 18 18 19 18 20 21 21 22 22 22 22 21 21 22 22 23 22 22 21 20 20
5 3 20 29 26 26 21 11 10 5 5 6 7 10 10 10 10 10 11 12 15 18 19 22 24 26 25 26 24 23 22 23 23 22 23 22 24 25 25 23 22 22 22 22
7 4 3 17 30 31 30 24 22 20 6 4 5 7 10 10 10 10 10 12 15 18 19 20 23 27 27 27 24 24 22 22 24 24 25 27 28 28 26 23 22 23 22 22
8 3 2 8 26 30 37 38 28 35 36 7 5 5 7 7 8 8 10 14 16 20 22 22 23 25 28 28 26 25 25 26 28 30 31 32 30 28 27 25 24 24 23 21
11 8 2 1 14 32 34 40 38 29 35 41 13 6 6 6 6 6 8 12 15 18 20 22 25 26 27 30 30 30 30 34 36 36 35 34 31 31 30 27 26 24 23 19
12 11 8 2 1 7 31 33 40 46 38 35 48 30 11 7 7 7 8 12 16 18 21 23 27 29 29 30 32 33 35 39 40 36 33 34 34 34 30 28 26 25 22 17
13 14 12 7 1 1 7 26 32 39 47 47 55 65 54 24 12 10 10 10 13 20 19 22 29 29 28 34 35 36 40 43 45 39 35 33 34 32 31 28 27 24 19 16
14 14 14 12 7 1 1 12 39 38 50 60 66 68 76 64 45 21 14 12 12 15 16 20 27 30 34 33 38 44 46 48 50 46 38 34 33 34 31 29 27 23 19 17
17 15 15 13 10 5 2 2 26 50 59 73 85 72 81 78 67 39 23 18 17 17 17 21 23 28 37 34 39 45 49 53 54 52 46 37 35 34 32 29 26 21 20 18
18 15 15 13 10 7 3 3 18 59 61 77 86 89 88 94 87 79 50 35 30 28 26 25 23 30 44 35 36 46 54 59 59 58 49 39 37 35 33 29 25 22 20 18
24 19 18 14 12 9 5 2 6 41 68 75 87 92 99 100 100 96 94 79 64 51 39 26 21 33 45 34 36 46 58 65 66 62 48 41 38 35 32 29 26 23 20 19
33 24 24 20 16 12 8 4 4 10 55 86 87 94 100 100 100 96 91 91 89 80 82 46 41 89 96 68 34 43 62 73 72 64 48 42 39 35 33 29 27 23 21 18
52 38 30 25 21 16 12 7 4 7 17 63 100 99 97 100 99 100 97 91 87 92 91 89 96 90 94 55 28 37 70 89 78 62 48 42 39 36 32 29 26 23 21 16
63 53 40 30 24 19 16 10 6 6 15 20 78 100 95 93 99 100 100 100 100 100 98 99 96 99 99 44 25 46 91 94 83 60 48 44 40 36 33 28 25 24 19 13
62 74 52 36 26 21 19 11 8 7 15 20 40 95 99 88 94 100 100 100 98 98 98 94 100 100 94 54 37 91 97 96 82 57 48 45 40 35 31 28 26 23 16 10